Flag for Germany Weather past 2 weeks in Falkensee, Brandenburg, Germany

Now
39 °F

Light rain. Partly sunny.


Feels Like: 30 °F
Forecast: 35 / 42 °F
Wind: 18 mph from West

Location: Berlin-Tegel

Current Time: Apr 1, 2015 at 8:33:34 AM

Latest Report: Apr 1, 2015 at 7:50 AM


Visibility: N/A

Pressure: 29.59 "Hg

Humidity: 81%

Dew point: 34 °F

Location of FalkenseeLocation

Historic Weather in Falkensee — Graph

°F

Falkensee temperature yesterday

Maximum temperature yesterday: 52 °F (at 12:20 PM)
Minimum temperature yesterday: 34 °F (at 7:20 AM)
Average temperature yesterday: 43 °F

Past Weeks' High & Low Weather Summary

 TemperatureHumidityPressure
High63 °F (Mar 17, 2:50 PM)100% (Mar 21, 5:20 AM)30.42 "Hg (Mar 21, 5:20 AM)
Low27 °F (Mar 20, 5:20 AM)14% (Mar 18, 2:20 PM)29.03 "Hg (Mar 30, 12:20 AM)
Average45 °F65%29.91 "Hg
* Reported Mar 17 6:20 AM — Apr 1 7:20 AM, Falkensee, Weather by CustomWeather, © 2015

Note: Actual official high and low records may vary slightly from our data, if they occured in-between our weather recording intervals... More about our weather records

Advertising

Falkensee weather history for previous 24 hours

 ConditionsComfort  
Time TempWeatherWind HumidityBarometerVisibility
7:20 AM
Wed, Apr 1
39 °FPassing clouds.16 mph75%29.59 "HgN/A
6:50 AM39 °FLight rain. Passing clouds.20 mph75%29.56 "HgN/A
6:20 AM39 °FPassing clouds.17 mph75%29.56 "HgN/A
5:50 AM39 °FPassing clouds.17 mph75%29.53 "HgN/A
5:20 AM39 °FPassing clouds.18 mph75%29.53 "HgN/A
4:50 AM39 °FLight rain. Passing clouds.18 mph81%29.50 "HgN/A
4:20 AM39 °FPassing clouds.18 mph75%29.50 "HgN/A
3:50 AM39 °FPassing clouds.18 mph75%29.50 "HgN/A
3:20 AM39 °FPassing clouds.18 mph75%29.47 "HgN/A
2:50 AM39 °FPassing clouds.21 mph75%29.47 "HgN/A
2:20 AM39 °FPassing clouds.22 mph75%29.47 "HgN/A
1:50 AM39 °FPassing clouds.21 mph75%29.45 "HgN/A
1:20 AM39 °FPassing clouds.21 mph75%29.45 "HgN/A
12:50 AM41 °FPartly cloudy.21 mph70%29.42 "HgN/A
12:20 AM41 °FPassing clouds.28 mph70%29.42 "HgN/A
11:50 PM
Tue, Mar 31
43 °FPassing clouds.25 mph57%29.42 "HgN/A
11:20 PM43 °FPassing clouds.28 mph61%29.39 "HgN/A
10:50 PM45 °FPassing clouds.31 mph57%29.39 "HgN/A
10:20 PM45 °FPassing clouds.28 mph57%29.36 "HgN/A
9:50 PM43 °FPassing clouds.25 mph71%29.36 "HgN/A
9:20 PM43 °FLight rain. Passing clouds.31 mph71%29.33 "HgN/A
8:50 PM45 °FLight rain. Partly cloudy.31 mph66%29.33 "HgN/A
8:20 PM45 °FLight rain. Partly sunny.38 mph66%29.30 "HgN/A
7:50 PM45 °FLight rain. Partly sunny.35 mph71%29.27 "HgN/A
7:20 PM45 °FLight rain. Broken clouds.36 mph76%29.24 "HgN/A
6:50 PM45 °FSprinkles. Partly sunny.33 mph76%29.21 "HgN/A
6:20 PM45 °FSprinkles. Partly sunny.33 mph76%29.21 "HgN/A
5:50 PM45 °FRain showers. Partly sunny.26 mph76%29.21 "HgN/A
5:20 PM48 °FSprinkles. Partly sunny.31 mph66%29.15 "HgN/A
4:50 PM48 °FPartly sunny.32 mph62%29.12 "HgN/A
4:20 PM48 °FScattered showers. Broken clouds.29 mph66%29.12 "HgN/A
3:50 PM50 °FSprinkles. Broken clouds.25 mph62%29.09 "HgN/A
3:20 PM52 °FScattered showers. Partly sunny.32 mph58%29.09 "HgN/A
2:50 PM50 °FScattered showers. Broken clouds.38 mph67%29.06 "HgN/A
2:20 PM52 °FPartly sunny.32 mph62%29.06 "HgN/A
1:50 PM52 °FScattered showers. Broken clouds.35 mph67%29.06 "HgN/A
1:20 PM50 °FScattered showers. Broken clouds.24 mph76%29.06 "HgN/A
12:50 PM52 °FBroken clouds.29 mph62%29.06 "HgN/A
12:20 PM52 °FScattered showers. Partly sunny.22 mph77%29.06 "HgN/A
11:50 AM48 °FPartly sunny.21 mph82%29.06 "HgN/A
11:20 AM46 °FPartly sunny.20 mph87%29.06 "HgN/A
10:50 AM43 °FBroken clouds.17 mph93%29.06 "HgN/A
10:20 AM39 °FLight rain. Broken clouds.13 mph93%29.06 "HgN/A
9:50 AM36 °FLight rain. Partly sunny.14 mph100%29.06 "Hg5 mi
9:20 AM34 °FDrizzle. Partly sunny.15 mph100%29.09 "Hg4 mi
8:50 AM34 °FSnow. Partly sunny.16 mph93%29.09 "Hg5 mi
8:20 AM34 °FSnow. Partly sunny.16 mph93%29.15 "Hg1 mi
Weather by CustomWeather, © 2015

See weather overviewHow to use our weather pages